FW9568 Weather Reports


time (UTC)temp
F
wind
direction
speed
knots
gust
knots
rain 1hr
in
rain 24hr
in
rain mn
in
humidity
%
barometer
mb
20260903222703 89 120 1.7 5.2 0.00 0.00 0.00 19 1016.6
20260903222018 89 128 1.7 5.2 0.00 0.00 0.00 20 1016.6
20260903220903 89 118 1.7 6.1 0.00 0.00 0.00 20 1016.9
20260903220003 90 123 1.7 7.0 0.00 0.00 0.00 20 1016.9
20260903215403 90 120 1.7 6.1 0.00 0.00 0.00 19 1016.9
20260903214503 90 193 1.7 6.1 0.00 0.00 0.00 19 1017.0
20260903213603 90 210 0.9 4.3 0.00 0.00 0.00 18 1016.9
20260903212703 89 188 0.9 3.5 0.00 0.00 0.00 22 1016.9
20260903211803 89 214 1.7 5.2 0.00 0.00 0.00 22 1017.0
20260903210903 90 172 0.9 5.2 0.00 0.00 0.00 22 1017.2
20260903210216 90 88 1.7 3.5 0.00 0.00 0.00 22 1017.1
20260903205403 90 325 0.9 3.5 0.00 0.00 0.00 21 1017.3
20260903204503 90 161 0.9 5.2 0.00 0.00 0.00 22 1017.6
20260903203603 90 197 0.9 5.2 0.00 0.00 0.00 21 1017.7
20260903202917 90 227 0.0 2.6 0.00 0.00 0.00 22 1017.6
20260903201803 90 127 1.7 6.1 0.00 0.00 0.00 21 1017.9
20260903200903 90 81 1.7 3.5 0.00 0.00 0.00 22 1018.0
20260903200003 90 79 0.9 4.3 0.00 0.00 0.00 22 1018.0
20260903195403 90 108 0.9 3.5 0.00 0.00 0.00 21 1018.2
20260903194503 90 125 1.7 6.1 0.00 0.00 0.00 24 1018.3
20260903193818 90 212 0.9 4.3 0.00 0.00 0.00 24 1018.3
20260903192703 90 109 1.7 5.2 0.00 0.00 0.00 23 1018.4
20260903191803 90 193 1.7 5.2 0.00 0.00 0.00 25 1018.6
20260903190903 90 68 0.9 4.3 0.00 0.00 0.00 23 1018.6
20260903190003 89 104 2.6 6.1 0.00 0.00 0.00 24 1018.6
20260903185403 89 87 1.7 6.1 0.00 0.00 0.00 22 1018.6
20260903184503 88 317 0.9 3.5 0.00 0.00 0.00 29 1018.8
20260903183817 89 72 0.9 3.5 0.00 0.00 0.00 22 1018.9
20260903182703 88 73 1.7 4.3 0.00 0.00 0.00 24 1019.2
20260903181803 87 66 0.9 3.5 0.00 0.00 0.00 25 1019.3
20260903180903 87 266 0.9 2.6 0.00 0.00 0.00 25 1019.4
20260903180219 87 247 0.9 2.6 0.00 0.00 0.00 25 1019.4
20260903175618 88 243 0.9 2.6 0.00 0.00 0.00 24 1019.5
20260903174503 88 80 0.9 2.6 0.00 0.00 0.00 26 1019.5
20260903173603 88 142 0.9 1.7 0.00 0.00 0.00 24 1019.9
20260903172703 88 108 0.9 2.6 0.00 0.00 0.00 27 1019.9
20260903171803 88 95 0.9 3.5 0.00 0.00 0.00 26 1019.9
20260903170903 87 111 0.0 2.6 0.00 0.00 0.00 28 1019.9
20260903170218 86 0 0.0 0.0 0.00 0.00 0.00 33 1019.9
20260903165403 84 143 0.0 1.7 0.00 0.00 0.00 30 1019.9
20260903164503 83 186 0.0 0.9 0.00 0.00 0.00 30 1019.9
20260903163603 81 243 0.0 1.7 0.00 0.00 0.00 36 1019.9
20260903162703 82 275 0.0 1.7 0.00 0.00 0.00 32 1020.0
20260903161803 82 0 0.0 0.0 0.00 0.00 0.00 36 1020.0
20260903160903 82 0 0.0 0.0 0.00 0.00 0.00 33 1019.9
20260903160003 83 0 0.0 0.0 0.00 0.00 0.00 32 1019.9
20260903155403 83 71 0.0 2.6 0.00 0.00 0.00 34 1019.9
20260903154503 82 111 0.9 2.6 0.00 0.00 0.00 33 1020.0
20260903153603 82 70 0.0 1.7 0.00 0.00 0.00 32 1020.1
20260903152703 80 0 0.0 0.0 0.00 0.00 0.00 36 1020.0
20260903152019 79 0 0.0 0.0 0.00 0.00 0.00 35 1020.2
20260903150903 75 0 0.0 0.0 0.00 0.00 0.00 37 1020.1
20260903150003 74 0 0.0 0.0 0.00 0.00 0.00 43 1020.1
20260903145403 73 0 0.0 0.0 0.00 0.00 0.00 42 1020.1
20260903144503 72 0 0.0 0.0 0.00 0.00 0.00 40 1020.2
20260903143603 71 0 0.0 0.0 0.00 0.00 0.00 46 1020.1
20260903142703 69 0 0.0 0.0 0.00 0.00 0.00 46 1020.3
20260903141803 68 0 0.0 0.0 0.00 0.00 0.00 46 1020.1
20260903140903 66 0 0.0 0.0 0.00 0.00 0.00 50 1020.0
20260903140003 65 0 0.0 0.9 0.00 0.00 0.00 52 1020.1
20260903135403 65 348 0.0 0.9 0.00 0.00 0.00 52 1020.1
20260903134503 64 354 0.0 0.9 0.00 0.00 0.00 50 1020.1
20260903133603 63 71 0.0 1.7 0.00 0.00 0.00 52 1020.0
20260903132703 62 59 0.9 1.7 0.00 0.00 0.00 49 1019.7
20260903132018 61 27 0.9 2.6 0.00 0.00 0.00 51 1019.6
20260903130903 60 313 0.9 2.6 0.00 0.00 0.00 54 1019.6
20260903130003 60 71 0.0 1.7 0.00 0.00 0.00 54 1019.4
20260903125403 60 66 0.0 1.7 0.00 0.00 0.00 55 1019.2
20260903124503 60 281 0.0 1.7 0.00 0.00 0.00 54 1019.2
20260903123819 61 276 0.0 1.7 0.00 0.00 0.00 54 1019.1
20260903122918 61 291 0.9 3.5 0.00 0.00 0.00 54 1018.9
20260903122018 61 296 0.0 0.9 0.00 0.00 0.00 54 1018.8
20260903120903 61 296 0.0 1.7 0.00 0.00 0.00 53 1018.6
20260903120216 61 297 0.0 2.6 0.00 0.00 0.00 54 1018.6
20260903115616 61 291 0.9 2.6 0.00 0.00 0.00 53 1018.6
20260903114503 61 323 0.9 2.6 0.00 0.00 0.00 55 1018.3
20260903113603 61 296 0.0 1.7 0.00 0.00 0.00 54 1018.6
20260903112703 61 294 0.0 0.9 0.00 0.00 0.00 52 1018.4
20260903111803 61 294 0.0 1.7 0.00 0.00 0.00 54 1018.6
20260903110903 61 304 0.9 2.6 0.00 0.00 0.00 57 1018.5
20260903110003 61 70 0.0 1.7 0.00 0.00 0.00 56 1018.4
20260903105403 61 80 0.0 0.9 0.00 0.00 0.00 55 1018.3
20260903104503 61 80 0.0 1.7 0.00 0.00 0.00 54 1018.4
20260903103603 61 80 0.0 0.9 0.00 0.00 0.00 53 1018.2
20260903102703 61 81 0.0 2.6 0.00 0.00 0.00 54 1018.2
20260903101803 61 74 0.9 2.6 0.00 0.00 0.00 55 1018.1
20260903100903 62 76 0.0 1.7 0.00 0.00 0.00 58 1018.2
20260903100003 62 81 0.9 2.6 0.00 0.00 0.00 57 1018.6
20260903095403 62 82 0.9 2.6 0.00 0.00 0.00 58 1018.3
20260903094718 62 78 0.9 1.7 0.00 0.00 0.00 57 1018.3
20260903093603 62 56 0.0 1.7 0.00 0.00 0.00 58 1018.3
20260903092703 62 0 0.0 0.0 0.00 0.00 0.00 58 1018.4
20260903091803 63 0 0.0 0.0 0.00 0.00 0.00 58 1018.4
20260903090903 63 0 0.0 0.0 0.00 0.00 0.00 57 1018.4
20260903090003 64 290 0.0 1.7 0.00 0.00 0.00 55 1018.4
20260903085403 64 0 0.0 0.0 0.00 0.00 0.00 53 1018.4
20260903084503 64 55 0.0 0.9 0.00 0.00 0.00 55 1018.4
20260903083603 64 54 0.9 1.7 0.00 0.00 0.00 54 1018.4
20260903082917 65 313 0.9 6.1 0.00 0.00 0.00 54 1018.6
20260903081803 65 55 0.0 1.7 0.00 0.00 0.00 53 1018.4
20260903080903 66 49 0.0 2.6 0.00 0.00 0.00 52 1018.5
20260903080003 66 280 0.0 0.9 0.00 0.00 0.00 52 1018.4
20260903075403 67 0 0.0 0.9 0.00 0.00 0.00 51 1018.4
20260903074503 67 280 0.0 0.9 0.00 0.00 0.00 50 1018.5
20260903073603 67 281 0.9 2.6 0.00 0.00 0.00 50 1018.5
20260903072916 68 282 0.9 2.6 0.00 0.00 0.00 50 1018.6
20260903071803 68 280 0.0 1.7 0.00 0.00 0.00 49 1018.5
20260903070903 68 283 0.0 2.6 0.00 0.00 0.00 49 1018.5
20260903070219 68 293 0.0 2.6 0.00 0.00 0.00 48 1018.5
20260903065403 69 298 0.0 0.9 0.00 0.00 0.00 48 1018.5
20260903064503 69 298 0.0 0.9 0.00 0.00 0.00 47 1018.4
20260903063603 70 298 0.0 1.7 0.00 0.00 0.00 46 1018.5
20260903062703 71 298 0.0 1.7 0.00 0.00 0.00 45 1018.6
20260903061803 71 291 0.9 3.5 0.00 0.00 0.00 45 1018.5
20260903061119 72 291 1.7 7.8 0.00 0.00 0.00 44 1018.5
20260903060004 72 290 1.7 9.6 0.00 0.00 0.00 43 1018.3
20260903055403 72 292 2.6 9.6 0.00 0.00 0.00 43 1018.2
20260903054503 72 296 2.6 8.7 0.00 0.00 0.00 43 1018.4
20260903053603 72 285 3.5 7.8 0.00 0.00 0.00 43 1018.5
20260903052703 72 290 2.6 7.8 0.00 0.00 0.00 42 1018.3
20260903051803 72 289 2.6 7.8 0.00 0.00 0.00 42 1018.4
20260903050903 73 293 2.6 7.0 0.00 0.00 0.00 41 1018.4
20260903050003 73 290 3.5 9.6 0.00 0.00 0.00 40 1018.3
20260903045403 73 290 2.6 9.6 0.00 0.00 0.00 40 1018.1
20260903044717 72 292 2.6 8.7 0.00 0.00 0.00 40 1018.2
20260903043603 72 291 0.9 4.3 0.00 0.00 0.00 38 1018.2
20260903042703 73 19 0.0 0.9 0.00 0.00 0.00 37 1018.2
20260903041803 73 0 0.0 0.9 0.00 0.00 0.00 36 1018.1
20260903040903 74 0 0.0 0.9 0.00 0.00 0.00 36 1018.1
20260903040217 74 69 0.0 1.7 0.00 0.00 0.00 35 1018.1
20260903035403 75 92 0.0 1.7 0.00 0.00 0.00 34 1018.2
20260903034503 75 312 0.0 2.6 0.00 0.00 0.00 34 1018.3
20260903033603 75 234 0.9 3.5 0.00 0.00 0.00 33 1018.0
20260903032703 75 203 0.0 1.7 0.00 0.00 0.00 33 1018.1
20260903031803 75 204 0.0 1.7 0.00 0.00 0.00 34 1018.2
20260903031118 75 176 0.0 1.7 0.00 0.00 0.00 33 1018.0
20260903030003 75 126 0.0 2.6 0.00 0.00 0.00 33 1017.9
20260903025403 75 163 0.0 1.7 0.00 0.00 0.00 33 1017.9
20260903024503 75 174 0.0 0.9 0.00 0.00 0.00 33 1017.7
20260903023603 75 165 0.0 0.9 0.00 0.00 0.00 33 1017.7
20260903022703 76 0 0.0 0.0 0.00 0.00 0.00 33 1017.5
20260903021803 77 0 0.0 0.0 0.00 0.00 0.00 32 1017.4
20260903020903 78 0 0.0 0.0 0.00 0.00 0.00 31 1017.0
20260903020003 79 0 0.0 0.0 0.00 0.00 0.00 31 1017.1
20260903015403 79 98 0.0 0.9 0.00 0.00 0.00 29 1017.1
20260903014503 80 123 0.0 1.7 0.00 0.00 0.00 27 1017.1
20260903013603 81 116 0.0 0.9 0.00 0.00 0.00 28 1017.0
20260903012703 81 114 0.9 2.6 0.00 0.00 0.00 26 1016.9
20260903011803 82 102 0.9 2.6 0.00 0.00 0.00 26 1016.9
20260903010903 83 126 0.9 2.6 0.00 0.00 0.00 25 1017.0
20260903010003 83 110 0.9 4.3 0.00 0.00 0.00 26 1016.7
20260903005403 84 103 0.9 5.2 0.00 0.00 0.00 26 1016.9
20260903004503 84 108 1.7 6.1 0.00 0.00 0.00 26 1016.8
20260903003819 85 104 1.7 6.1 0.00 0.00 0.00 25 1016.9
20260903002918 85 86 1.7 3.5 0.00 0.00 0.00 25 1016.7
20260903001803 86 111 1.7 6.1 0.00 0.00 0.00 24 1016.6
20260903000903 86 108 1.7 5.2 0.00 0.00 0.00 24 1016.6
20260903000003 87 105 1.7 5.2 0.00 0.00 0.00 24 1016.8
20260902235403 87 123 1.7 5.2 0.00 0.00 0.00 24 1016.8
20260902234503 87 155 0.9 6.1 0.00 0.00 0.00 22 1016.8
20260902233603 88 149 0.9 3.5 0.00 0.00 0.00 23 1016.9
20260902232918 88 122 0.9 3.5 0.00 0.00 0.00 24 1016.8
20260902231803 88 189 0.9 4.3 0.00 0.00 0.00 24 1016.9
20260902230903 88 206 0.9 2.6 0.00 0.00 0.00 23 1016.9
20260902230003 88 220 0.9 2.6 0.00 0.00 0.00 25 1017.1
20260902225403 88 164 0.9 3.5 0.00 0.00 0.00 25 1017.0
20260902224503 88 142 0.9 3.5 0.00 0.00 0.00 23 1017.0
20260902223818 88 135 0.9 3.5 0.00 0.00 0.00 22 1017.1